RAM168 EDDF-EGPH

Flight info

Callsign RAM168
Flight time N/A
Altitude 32000
Route OBOKA3W/25C OBOKA Z28 DIBIR DCT BUDIP DCT GODOS DCT AGPED
Aircraft B38M/M-SDE1FGHILORVWXY/HB1

Departure

Time 2026-05-03 20:16
Airport Frankfurt Main Airport (EDDF)

Arrival

Time N/A
Airport Edinburgh Airport (EGPH)
Time Latitude Longitude Altitude Speed Heading
2026-05-03 20:15 50.04464 8.58490 372 ft 13 kts 250°
2026-05-03 20:15 50.04346 8.57998 369 ft 79 kts 249°
2026-05-03 20:15 50.04181 8.57304 373 ft 122 kts 250°
2026-05-03 20:15 50.03680 8.55259 601 ft 168 kts 247°
2026-05-03 20:16 50.03400 8.54117 1089 ft 171 kts 248°
2026-05-03 20:16 50.02977 8.52426 1910 ft 171 kts 248°
2026-05-03 20:16 50.02533 8.50687 2687 ft 181 kts 247°
2026-05-03 20:16 50.01849 8.49001 3492 ft 189 kts 226°
2026-05-03 20:17 50.00705 8.47902 4369 ft 201 kts 198°
2026-05-03 20:17 49.99337 8.47717 5503 ft 201 kts 189°
2026-05-03 20:17 49.97949 8.47460 5892 ft 200 kts 192°
2026-05-03 20:17 49.96589 8.47173 6095 ft 197 kts 193°
2026-05-03 20:18 49.95204 8.46658 6180 ft 213 kts 199°
2026-05-03 20:18 49.93749 8.46009 6252 ft 221 kts 199°
2026-05-03 20:18 49.92260 8.45255 6683 ft 223 kts 213°
2026-05-03 20:18 49.91185 8.43660 7785 ft 219 kts 233°
2026-05-03 20:19 49.90316 8.41624 8505 ft 232 kts 235°
2026-05-03 20:19 49.89442 8.39509 9493 ft 234 kts 236°
2026-05-03 20:19 49.88740 8.37142 10146 ft 254 kts 255°
2026-05-03 20:19 49.88719 8.34271 10598 ft 282 kts 277°
2026-05-03 20:20 49.89500 8.31373 11028 ft 311 kts 301°
2026-05-03 20:20 49.91158 8.29055 11629 ft 333 kts 322°
2026-05-03 20:20 49.93073 8.26968 12348 ft 339 kts 320°
2026-05-03 20:20 49.95003 8.24806 12694 ft 342 kts 320°
2026-05-03 20:21 49.96929 8.22649 12862 ft 341 kts 320°
2026-05-03 20:21 49.98851 8.20493 12987 ft 342 kts 320°
2026-05-03 20:21 50.00778 8.18319 13658 ft 341 kts 320°
2026-05-03 20:21 50.02710 8.16152 14451 ft 344 kts 320°
2026-05-03 20:22 50.04668 8.13945 15124 ft 350 kts 320°
2026-05-03 20:22 50.06652 8.11708 15837 ft 354 kts 320°
2026-05-03 20:22 50.08659 8.09440 16512 ft 359 kts 320°
2026-05-03 20:22 50.10692 8.07142 17192 ft 363 kts 319°
2026-05-03 20:23 50.12722 8.04844 17843 ft 367 kts 319°
2026-05-03 20:23 50.14800 8.02490 18467 ft 372 kts 319°
2026-05-03 20:23 50.16904 8.00103 19032 ft 376 kts 319°
2026-05-03 20:23 50.19026 7.97694 19603 ft 379 kts 319°
2026-05-03 20:24 50.21168 7.95260 20155 ft 382 kts 319°
2026-05-03 20:24 50.23331 7.92800 20701 ft 386 kts 318°
2026-05-03 20:24 50.25514 7.90314 21250 ft 390 kts 318°
2026-05-03 20:24 50.27720 7.87799 21790 ft 394 kts 318°
2026-05-03 20:25 50.29942 7.85263 22321 ft 397 kts 317°
2026-05-03 20:25 50.32182 7.82703 22851 ft 400 kts 318°
2026-05-03 20:25 50.34444 7.80115 23366 ft 404 kts 317°
2026-05-03 20:25 50.36724 7.77503 23840 ft 407 kts 317°
2026-05-03 20:26 50.38991 7.74903 24268 ft 410 kts 317°
2026-05-03 20:26 50.41302 7.72251 24692 ft 413 kts 317°
2026-05-03 20:26 50.43625 7.69581 25111 ft 416 kts 318°
2026-05-03 20:26 50.45965 7.66889 25541 ft 418 kts 318°
2026-05-03 20:27 50.48323 7.64172 25957 ft 421 kts 318°
2026-05-03 20:27 50.50691 7.61440 26371 ft 424 kts 318°
2026-05-03 20:27 50.53071 7.58691 26769 ft 426 kts 318°
2026-05-03 20:27 50.55467 7.55920 27167 ft 429 kts 318°
2026-05-03 20:28 50.57881 7.53126 27553 ft 431 kts 318°
2026-05-03 20:28 50.60300 7.50321 27937 ft 433 kts 318°
2026-05-03 20:28 50.62735 7.47495 28322 ft 436 kts 318°
2026-05-03 20:28 50.65182 7.44652 28700 ft 438 kts 318°
2026-05-03 20:29 50.67640 7.41791 29064 ft 441 kts 318°
2026-05-03 20:29 50.70110 7.38913 29426 ft 443 kts 318°
2026-05-03 20:29 50.72597 7.36011 29787 ft 445 kts 317°
2026-05-03 20:29 50.74848 7.32720 30091 ft 437 kts 302°
2026-05-03 20:30 50.76600 7.28896 30350 ft 437 kts 301°
2026-05-03 20:30 50.78414 7.24949 30672 ft 438 kts 300°
2026-05-03 20:30 50.80163 7.21087 31073 ft 437 kts 300°
2026-05-03 20:30 50.81918 7.17173 31479 ft 435 kts 300°
2026-05-03 20:31 50.83664 7.13256 31860 ft 435 kts 300°
2026-05-03 20:31 50.85408 7.09334 32008 ft 436 kts 300°
2026-05-03 20:31 50.87144 7.05425 31998 ft 433 kts 300°
2026-05-03 20:32 50.90598 6.97630 31998 ft 432 kts 299°
2026-05-03 20:32 50.94043 6.89838 31992 ft 431 kts 299°
2026-05-03 20:33 50.97478 6.82045 31972 ft 431 kts 299°
2026-05-03 20:33 51.00902 6.74252 31968 ft 430 kts 299°
2026-05-03 20:34 51.04316 6.66460 31968 ft 430 kts 299°
2026-05-03 20:34 51.07704 6.58707 31965 ft 429 kts 299°
2026-05-03 20:35 51.11098 6.50909 31970 ft 429 kts 299°
2026-05-03 20:35 51.14487 6.43102 31970 ft 428 kts 299°
2026-05-03 20:36 51.17863 6.35299 31968 ft 427 kts 298°
2026-05-03 20:36 51.21231 6.27491 31968 ft 427 kts 299°
2026-05-03 20:37 51.24593 6.19677 31961 ft 426 kts 298°
2026-05-03 20:37 51.27923 6.11852 31956 ft 425 kts 297°
2026-05-03 20:38 51.31166 6.03943 31951 ft 425 kts 297°
2026-05-03 20:38 51.34387 5.96092 31944 ft 424 kts 297°
2026-05-03 20:39 51.37699 5.88267 31930 ft 429 kts 306°
2026-05-03 20:39 51.39946 5.85061 31949 ft 437 kts 317°
2026-05-03 20:39 51.42343 5.82043 31936 ft 438 kts 316°
2026-05-03 20:40 51.47142 5.76009 31943 ft 438 kts 316°
2026-05-03 20:40 51.51960 5.70000 31941 ft 439 kts 316°
2026-05-03 20:41 51.56776 5.63987 31943 ft 439 kts 316°
2026-05-03 20:41 51.61601 5.57944 31943 ft 439 kts 316°
2026-05-03 20:42 51.66383 5.51940 31949 ft 439 kts 316°
2026-05-03 20:42 51.71195 5.45881 31945 ft 439 kts 316°
2026-05-03 20:43 51.76000 5.39815 31942 ft 438 kts 316°
2026-05-03 20:43 51.80798 5.33740 31932 ft 438 kts 316°
2026-05-03 20:44 51.85598 5.27645 31929 ft 438 kts 316°
2026-05-03 20:44 51.90382 5.21555 31931 ft 438 kts 316°
2026-05-03 20:45 51.95165 5.15448 31933 ft 437 kts 316°
2026-05-03 20:45 51.99945 5.09329 31928 ft 437 kts 316°
2026-05-03 20:46 52.04716 5.03203 31931 ft 437 kts 316°
2026-05-03 20:46 52.09457 4.97099 31934 ft 437 kts 316°
2026-05-03 20:47 52.14223 4.90945 31934 ft 437 kts 316°
2026-05-03 20:47 52.18983 4.84784 31938 ft 437 kts 316°
2026-05-03 20:48 52.23736 4.78612 31943 ft 437 kts 316°
2026-05-03 20:48 52.28465 4.72455 31943 ft 437 kts 316°
2026-05-03 20:49 52.33211 4.66258 31943 ft 437 kts 316°
2026-05-03 20:49 52.37961 4.60039 31938 ft 437 kts 315°
2026-05-03 20:50 52.42707 4.53806 31931 ft 437 kts 316°
2026-05-03 20:50 52.47449 4.47561 31927 ft 437 kts 315°
2026-05-03 20:51 52.52183 4.41310 31925 ft 437 kts 315°
2026-05-03 20:51 52.56915 4.35043 31923 ft 437 kts 315°
2026-05-03 20:52 52.61650 4.28754 31919 ft 437 kts 315°
2026-05-03 20:52 52.66384 4.22448 31923 ft 438 kts 315°
2026-05-03 20:53 52.71094 4.16156 31922 ft 438 kts 315°
2026-05-03 20:53 52.75830 4.09811 31919 ft 438 kts 315°
2026-05-03 20:54 52.80561 4.03454 31920 ft 439 kts 315°
2026-05-03 20:54 52.87662 3.93879 31920 ft 439 kts 315°
2026-05-03 20:55 52.92368 3.87511 31921 ft 439 kts 315°
2026-05-03 20:55 52.97097 3.81092 31910 ft 439 kts 315°
2026-05-03 20:56 53.01823 3.74659 31915 ft 439 kts 315°
2026-05-03 20:56 53.06544 3.68215 31915 ft 439 kts 315°
2026-05-03 20:57 53.11264 3.61756 31920 ft 439 kts 315°
2026-05-03 20:57 53.15981 3.55283 31918 ft 439 kts 315°
2026-05-03 20:58 53.20689 3.48804 31912 ft 439 kts 315°
2026-05-03 20:58 53.25287 3.42134 31902 ft 435 kts 310°
2026-05-03 20:59 53.29170 3.34504 31897 ft 427 kts 297°
2026-05-03 20:59 53.30490 3.30213 31903 ft 417 kts 286°
2026-05-03 20:59 53.31578 3.25698 31892 ft 422 kts 293°
2026-05-03 21:00 53.33716 3.20121 31898 ft 426 kts 297°
2026-05-03 21:00 53.37980 3.08994 31908 ft 426 kts 297°
2026-05-03 21:01 53.41178 3.00610 31915 ft 426 kts 297°
2026-05-03 21:01 53.44347 2.92277 31916 ft 426 kts 297°
2026-05-03 21:02 53.47531 2.83875 31917 ft 426 kts 297°
2026-05-03 21:02 53.50705 2.75470 31917 ft 426 kts 297°
2026-05-03 21:03 53.53868 2.67067 31917 ft 425 kts 297°
2026-05-03 21:03 53.57023 2.58656 31919 ft 425 kts 297°
2026-05-03 21:04 53.60171 2.50237 31920 ft 424 kts 297°
2026-05-03 21:04 53.63290 2.41867 31917 ft 424 kts 297°
2026-05-03 21:05 53.66419 2.33442 31916 ft 423 kts 297°
2026-05-03 21:05 53.69015 2.26430 31918 ft 423 kts 297°